San Marcos Municipal Airport San Marcos US
ICAO: KHYI
IATA: HYI
Category: Medium
Scheduled Services: No

Elevation: 597 ft
TransAlt. 18000 ft.

Airport Communications:
AUSTIN APP/DEP:119
AWOS 3:120.825
CLNC DEL:121.35
CTAF/UNICOM:123.05

KHYI Zoom In..

If you have problems with the map follow the link
https://www.worldairports.se/pages/airport.php?
ICAO=KHYI

Runways:

(A) RW 08 length 6330 ft width 100 ft
---- / hdg 81

(B) RW 13 length 5601 ft width 150 ft
ILS 108.70 / hdg 126

(C) RW 17 length 5214 ft width 100 ft
---- / hdg 171

(D) RW 26 length 6330 ft width 100 ft
---- / hdg 261

(E) RW 31 length 5601 ft width 150 ft
---- / hdg 306

(F) RW 35 length 5214 ft width 100 ft
---- / hdg 351

Location; KHYI
Day. 26 / Time. 23.56 Zulu
* Altimeter: 29.96
* Temperature: 19° c. 66.2°f.
* Wind from: 360° Speed 06 kn.
Dewpoint: 08° c.
Visibility: 10 Statute Miles.
Clouds: Clear (automated report).

KHYI 262356Z 36006KT 10SM CLR 19/08 A2996 RMK AO2 SLP138 T01890083 10256 20189 53003


Wind From 360°
Speed 06 kn.

 
 
jpsmedia worldairports.se 2020   terms of use